Vertical_Velocity
0 -0 -0 0 -2 -1 -0 -2 -1 2 3 -1 -2 -1 -1 2 4 2 4 6 4 5
1 -0 0 0 -0 -2 -2 0 1 -1 1 1 0 0 -2 1 -2 2 3 -2 8 4
-2 -0 -1 -2 -3 -1 1 -1 1 2 0 -1 -1 3 -1 -6 -4 -4 -1 -2 -1 -2
-1 -0 -1 -0 -1 -0 -2 1 1 1 3 -1 -1 -1 -1 1 -1 -2 -1 -1 -2 -3
0 -1 1 0 0 -1 -2 -2 -1 -2 -2 -1 -1 -3 -2 -3 -3 -3 -0 0 0 -1
-2 -0 1 2 -0 -2 -2 -1 -1 1 -0 -2 -3 -2 -0 -1 -1 -2 2 -0 -2 1
2 -1 -1 -2 -2 -0 1 -1 -2 -7 -3 -2 -0 -2 0 0 3 -6 -1 1 1 -1
0 -1 -2 -2 -0 1 -1 -2 -4 -1 2 2 -1 -3 -1 1 -1 -4 -4 -2 -3 0
-4 -1 1 -1 -1 -1 -1 -1 -3 -0 1 0 -2 1 -0 -3 -3 -2 -3 -0 -0 0
0 -4 -3 -2 -0 -1 0 -2 -1 1 0 -0 -1 -2 -0 -0 -4 -3 -3 -0 2 1
-2 -1 1 -0 -2 -0 -1 -2 0 1 -1 -2 -2 0 -1 -3 -4 -1 -1 -2 -1 -1
-1 -1 -1 0 1 -2 -3 2 -1 -3 -2 1 -2 -1 -1 -2 -2 -1 -2 -1 -1 -0
-1 0 -2 2 2 -2 -1 -2 -1 -1 1 -1 0 -1 0 0 0 0 -1 -1 0 -0
1 -1 -0 1 1 -1 -2 -1 -1 -0 -0 -1 1 0 0 -1 -1 -1 -2 -2 -2 -1
Height
1496 1495 1495 1494 1494 1494 1494 1494 1496 1495 1495 1496 1495 1495 1495 1494 1494 1494 1493 1493 1491 1491
1491 1491 1491 1491 1490 1490 1491 1490 1490 1489 1490 1490 1490 1489 1490 1489 1488 1487 1487 1487 1486 1485
1488 1487 1487 1486 1485 1486 1486 1486 1485 1484 1483 1483 1484 1484 1483 1483 1482 1482 1481 1481 1481 1479
1486 1484 1484 1484 1482 1482 1482 1482 1481 1480 1478 1477 1477 1477 1477 1476 1476 1476 1475 1475 1475 1475
1482 1483 1481 1480 1479 1478 1478 1477 1476 1474 1473 1472 1470 1470 1470 1470 1470 1471 1470 1469 1469 1468
1480 1479 1478 1476 1476 1475 1474 1473 1471 1469 1467 1466 1465 1465 1465 1465 1464 1466 1466 1465 1464 1463
1476 1475 1474 1473 1473 1473 1471 1470 1469 1467 1466 1464 1463 1462 1462 1461 1461 1462 1462 1461 1460 1459
1472 1472 1472 1471 1471 1470 1468 1467 1466 1465 1464 1463 1461 1461 1460 1458 1458 1458 1458 1457 1457 1456
1471 1471 1470 1469 1468 1467 1466 1465 1464 1464 1462 1461 1460 1459 1457 1456 1456 1457 1458 1458 1457 1456
1469 1469 1469 1468 1467 1466 1466 1464 1465 1464 1463 1462 1460 1460 1459 1458 1459 1459 1460 1460 1459 1458
1468 1468 1467 1467 1467 1466 1466 1466 1466 1465 1465 1464 1463 1462 1461 1461 1461 1462 1462 1461 1460 1459
1467 1468 1468 1468 1467 1467 1469 1468 1468 1467 1467 1466 1465 1464 1464 1463 1462 1462 1462 1461 1460 1459
1468 1469 1470 1470 1469 1470 1471 1471 1470 1469 1469 1468 1468 1467 1466 1464 1464 1463 1462 1461 1460 1459
1470 1471 1472 1472 1472 1472 1472 1472 1472 1471 1471 1470 1469 1468 1466 1464 1463 1462 1460 1459 1458 1456